Location: Leuk
(46.3174°N, 7.6341°E)
Time: 20:02:20
(UTC+00:00)

USA 238 DEB - Pass Details

Date: 09 March 2021
Orbit: 995 x 1217 km, 63.4° (Epoch: 18 April)

Event Time Altitude Azimuth Distance (km) Brightness Sun altitude
Rises 03:04:20 0° 320° (NW) 3,942 6.6 -29.3°
Reaches altitude 10° 03:06:58 10° 322° (NW) 3,012 5.9 -28.8°
Maximum altitude 03:14:14 81° 50° (NE) 1,187 3.9 -27.7°
Drops below altitude 10° 03:21:48 10° 138° (SE) 3,133 6.3 -26.5°
Sets 03:24:35 0° 140° (SE) 4,109 7.0 -26.1°
